TimeEDT,TemperatureF,Dew PointF,Humidity,Sea Level PressureIn,VisibilityMPH,Wind Direction,Wind SpeedMPH,Gust SpeedMPH,PrecipitationIn,Events,Conditions,WindDirDegrees,DateUTC
12:15 AM,55.4,53.6,94,30.21,10.0,NE,4.6,-,N/A,,Overcast,40,2012-10-25 04:15:00
12:35 AM,55.4,53.6,94,30.20,10.0,NE,4.6,-,N/A,,Overcast,40,2012-10-25 04:35:00
12:55 AM,55.4,53.6,94,30.21,10.0,Calm,Calm,-,N/A,,Overcast,0,2012-10-25 04:55:00
1:15 AM,55.4,53.6,94,30.21,10.0,Calm,Calm,-,N/A,,Overcast,0,2012-10-25 05:15:00
1:35 AM,55.4,51.8,88,30.22,10.0,Calm,Calm,-,N/A,,Overcast,0,2012-10-25 05:35:00
1:55 AM,55.4,53.6,94,30.21,10.0,Calm,Calm,-,N/A,,Overcast,0,2012-10-25 05:55:00
2:15 AM,53.6,53.6,100,30.21,10.0,Calm,Calm,-,N/A,,Overcast,0,2012-10-25 06:15:00
2:35 AM,53.6,53.6,100,30.21,10.0,Calm,Calm,-,N/A,,Overcast,0,2012-10-25 06:35:00
2:55 AM,55.4,51.8,88,30.21,10.0,Calm,Calm,-,N/A,,Overcast,0,2012-10-25 06:55:00
3:15 AM,55.4,53.6,94,30.21,10.0,Calm,Calm,-,N/A,,Overcast,0,2012-10-25 07:15:00
3:35 AM,55.4,53.6,94,30.21,10.0,Calm,Calm,-,N/A,,Overcast,0,2012-10-25 07:35:00
3:55 AM,53.6,53.6,100,30.21,10.0,Calm,Calm,-,N/A,,Overcast,0,2012-10-25 07:55:00
4:15 AM,53.6,53.6,100,30.21,10.0,Calm,Calm,-,N/A,,Overcast,0,2012-10-25 08:15:00
4:35 AM,53.6,53.6,100,30.21,10.0,NNE,3.5,-,N/A,,Overcast,30,2012-10-25 08:35:00
4:55 AM,53.6,53.6,100,30.21,10.0,Calm,Calm,-,N/A,Rain,Light Rain,0,2012-10-25 08:55:00
5:15 AM,53.6,53.6,100,30.21,10.0,Calm,Calm,-,N/A,,Overcast,0,2012-10-25 09:15:00
5:35 AM,53.6,53.6,100,30.22,10.0,Calm,Calm,-,N/A,,Overcast,0,2012-10-25 09:35:00
5:55 AM,53.6,53.6,100,30.22,10.0,Calm,Calm,-,N/A,,Overcast,0,2012-10-25 09:55:00
6:15 AM,53.6,53.6,100,30.23,10.0,Calm,Calm,-,N/A,,Overcast,0,2012-10-25 10:15:00
6:35 AM,53.6,53.6,100,30.24,10.0,Calm,Calm,-,N/A,,Overcast,0,2012-10-25 10:35:00
6:45 AM,53.6,51.8,94,30.24,5.0,Calm,Calm,-,N/A,,Overcast,0,2012-10-25 10:45:00
7:45 AM,55.4,51.8,88,30.26,6.0,NE,4.6,-,N/A,,Overcast,40,2012-10-25 11:45:00
8:45 AM,55.4,51.8,88,30.26,6.0,Calm,Calm,-,N/A,,Overcast,0,2012-10-25 12:45:00
9:45 AM,57.2,51.8,82,30.27,6.0,Calm,Calm,-,N/A,,Overcast,0,2012-10-25 13:45:00
10:45 AM,57.2,51.8,82,30.28,6.0,NE,3.5,-,N/A,,Overcast,40,2012-10-25 14:45:00
11:45 AM,59.0,51.8,77,30.27,6.0,Calm,Calm,-,N/A,,Overcast,0,2012-10-25 15:45:00
12:45 PM,60.8,53.6,77,30.27,6.0,Calm,Calm,-,N/A,,Overcast,0,2012-10-25 16:45:00
1:45 PM,60.8,53.6,77,30.25,6.0,East,5.8,-,N/A,,Overcast,100,2012-10-25 17:45:00
2:45 PM,62.6,53.6,72,30.24,6.0,SE,3.5,-,N/A,,Haze,130,2012-10-25 18:45:00
3:45 PM,62.6,53.6,72,30.24,6.0,South,6.9,-,N/A,,Haze,170,2012-10-25 19:45:00
4:45 PM,60.8,53.6,77,30.25,6.0,South,3.5,-,N/A,,Haze,170,2012-10-25 20:45:00
5:45 PM,60.8,53.6,77,30.25,6.0,East,4.6,-,N/A,,Haze,100,2012-10-25 21:45:00
6:45 PM,59.0,53.6,82,30.25,6.0,South,3.5,-,N/A,,Haze,180,2012-10-25 22:45:00
7:45 PM,59.0,53.6,82,30.26,6.0,Calm,Calm,-,N/A,,Haze,0,2012-10-25 23:45:00
8:45 PM,59.0,53.6,82,30.26,10.0,Calm,Calm,-,N/A,,Overcast,0,2012-10-26 00:45:00
9:45 PM,59.0,53.6,82,30.25,10.0,Calm,Calm,-,N/A,,Overcast,0,2012-10-26 01:45:00
11:15 PM,57.2,55.4,94,30.24,10.0,Calm,Calm,-,N/A,,Overcast,0,2012-10-26 03:15:00
11:55 PM,57.2,55.4,94,30.23,10.0,Calm,Calm,-,N/A,,Overcast,0,2012-10-26 03:55:00